Reflectivity
-20 -18 14 45 31 20 -14 -20 -20 -12 -20 -20 -18 15 21 7 -10 -20 -20 2 -20 -20 -20 -20 -20 -20 -20 -20 -20 -17 5 8 -9 5 -7 -20 -20 -20 -20 -20 -20 -13 -17 -14 -20 -20 -20 -12 -20
-19 13 8 30 29 -20 -18 8 -17 -20 -20 13 -19 38 -0 -15 -20 -20 -20 -20 -20 -20 -20 -20 -20 -20 -20 -20 -20 -2 -7 7 -20 -20 -20 -20 -20 -1 -18 -10 -20 21 -10 -7 -13 -19 -16 -20 -20
-3 8 23 14 -6 2 25 -10 -20 -20 -20 -18 -15 -20 -20 -20 -20 -20 -20 -20 -20 -20 -20 -20 -20 -20 -20 -2 -20 -5 -16 -3 -16 11 -20 -19 -12 -13 -20 -20 2 -17 -20 8 -20 -20 -20 -20 -20
22 14 -15 -7 31 -20 -20 -20 -20 -20 -20 -20 26 -20 -20 -20 -20 -20 -20 -20 -20 -20 -20 -20 -20 -20 -20 -9 -2 -20 -20 -20 -20 -2 -20 -7 -11 -20 -16 3 -20 -20 -20 -14 -20 -15 -8 -20 -20
24 40 10 -16 -20 -20 -20 -20 -20 -20 -20 -20 -20 -20 -20 -20 -20 -20 -20 -20 -20 -20 -20 -20 -20 -20 -20 -20 -20 29 -20 -20 -20 -20 -2 -20 -20 -20 -20 -20 -15 -17 -1 -20 -13 -10 -20 -20 -20
4 7 9 -20 -20 -20 -20 32 -20 -20 -20 -20 -20 -20 -20 -20 -20 -20 -20 -18 -5 -20 -20 -20 -18 -20 -20 -20 -20 -20 -19 -20 -20 -20 -18 -20 -20 -20 -9 -7 -19 -11 5 -20 -20 -20 -11 -20 -20
-11 12 -20 -20 -20 -20 -15 5 -20 -20 -20 -20 -20 -20 -20 -20 -20 -20 -20 -20 -20 -20 -20 -20 -20 -15 -20 -20 -20 -20 -20 -20 -20 -20 -20 -20 -20 -20 -20 13 -20 -20 -20 -20 -20 -20 -18 -20 -20
15 8 5 -20 -20 -20 -20 25 10 -20 -20 -20 -20 -20 -20 -20 -20 -20 -20 -20 -20 -20 -20 -20 -20 -20 2 -9 -20 -20 -20 -20 -20 -20 -20 -20 -20 -20 -20 -15 -20 -20 -20 -20 -20 -20 -20 -20 -20
21 7 -16 -20 -20 -20 -20 -20 -20 -20 -8 -20 -20 -20 -20 -20 -20 -20 -20 -20 -20 -20 -20 -20 -20 -20 -20 -16 -20 -20 -20 -20 -20 -19 -19 -20 -20 -20 -20 -7 -20 -20 -20 -20 -20 -20 -20 -20 -20
-20 -20 -20 -20 -20 -20 -11 -20 -20 -20 -20 -20 -20 -20 -20 -20 -20 -20 -20 -20 -20 -20 -20 -20 -20 -20 -20 -20 -20 -20 -20 -20 -20 -20 -20 -5 -13 -20 -20 -20 -20 -20 -20 -20 -20 -20 -19 -20 -20
-20 -20 -20 -20 -20 -20 -20 -20 -20 18 -20 -20 -20 -20 -20 -20 -20 -20 -20 -20 -20 -19 -20 -20 -20 -20 -20 -20 -20 -20 -20 6 -14 -20 -20 24 -16 -20 -20 -20 -20 -20 -20 -20 -20 -12 3 23 -12
-20 -20 -20 -20 -20 -20 -20 -20 -20 19 -20 -20 -20 -20 -20 -20 -20 -20 -20 -14 -20 -20 -20 -20 -20 -18 -12 -20 -20 -20 -20 -20 -20 -20 -20 -20 -20 37 -20 -20 -20 19 14 1 -0 -20 20 -20 28
-20 -20 -20 -20 -20 -20 -20 -20 -20 -20 -20 -20 -20 -20 -20 -20 -20 -20 -20 -20 -20 -20 -20 -20 -20 -14 -20 -20 -20 -19 -20 -20 -20 -20 -20 -20 -20 26 -20 -20 -20 3 -16 -20 -20 -20 -16 -20 -20
-7 -3 -15 -20 -16 20 -7 -20 -20 -20 -20 -20 -20 -20 -20 -20 -20 -20 -20 -20 -20 -20 -20 -20 -20 -20 -20 -20 -17 -2 -20 -19 -20 -20 -20 -20 -17 -20 -20 -20 -20 -20 -20 -20 -20 -20 -20 -6 2
-13 18 27 -5 41 10 21 -20 -20 -20 -20 -20 -20 -20 -20 -20 -20 -20 -20 -20 -20 -20 -20 -20 -20 -20 -20 -20 -20 -20 -20 -9 -20 -20 -20 -20 -10 -18 0 -20 -13 -18 -4 -20 -20 -20 -20 -17 -19
-20 -20 12 -15 28 -3 17 -18 -20 -20 -20 -20 -20 -20 -20 -20 -20 -20 -20 -20 -20 -20 -20 -20 -20 -20 -20 -20 -20 -20 -17 22 -20 -20 -20 -20 -20 -20 -20 -20 -19 -17 -20 -20 -20 -20 -17 -20 -15
16 -20 -20 -20 -20 -20 24 7 -20 -20 -20 -20 -20 -20 -20 -20 -20 -20 -20 -20 -20 -20 -20 -20 -20 -20 -20 -20 -20 -20 -20 -20 4 -20 -19 -20 -20 -20 -20 -20 2 0 -20 -20 -20 -18 -10 -19 -20
-19 -20 -20 -20 -20 -20 -20 -6 -20 -20 -20 -20 -20 -20 -20 -20 -20 -20 -20 -20 -20 -20 -20 -20 -20 -20 -20 -20 -20 -20 -20 -20 -20 -11 -20 -20 -20 -20 -20 -16 -14 -20 -20 -20 -20 5 -4 -16 -10
-20 -20 -20 -20 -20 -20 -20 -20 -20 -20 -20 -20 -20 -20 -20 -20 -20 -20 -20 -20 -20 -20 -20 -20 -20 -20 -20 -20 -20 -20 -20 -20 -20 -19 -20 -20 -20 -20 -17 -16 -20 -20 -20 -15 -14 -20 -19 34 36
-20 -20 -20 -20 -20 -20 -20 -20 -20 -20 -20 -20 -20 -20 -20 -20 -20 -20 -20 -20 -20 -20 -20 -20 -20 -20 -20 -20 -20 -20 -20 -20 -20 -20 -20 -20 -20 -20 -15 -1 -19 -20 -14 -20 -6 19 1 26 1
-20 -20 -20 -20 -20 -20 -20 -20 -20 -20 -20 -20 -20 -20 -20 -20 -20 -20 -20 -20 -20 -20 -20 -20 -20 -20 -20 -20 -20 -20 -20 -20 -20 -20 -20 -20 -20 -20 -20 -17 12 -14 -19 -12 -20 -17 25 -4 1
-20 -20 -20 -20 -20 -20 -20 -20 -20 -20 -20 -20 -20 -20 -20 -20 -20 -20 -20 -20 -20 -20 -20 -20 -20 -20 -20 -20 -20 -20 -20 -20 -20 -20 -20 -20 -20 -20 -20 -20 -20 -20 -20 -14 -20 -13 -20 -20 -18
-20 -20 -20 -20 -20 -20 -20 7 -16 -20 -20 -20 -20 -20 -20 -20 -20 -20 -20 -20 -20 -20 -20 -20 -20 -20 -20 -20 -20 -20 -20 -20 -20 -20 -18 -20 -20 -20 -20 -20 -20 -20 -20 -20 -20 -19 -20 -20 -20
-20 -20 -20 -20 -18 -12 -20 -19 20 -20 -20 -20 -20 -19 -20 -11 -20 -20 -20 -20 -20 -20 -20 -20 -20 -20 -20 -20 -20 -20 -20 -20 -20 -20 -2 -20 1 -20 -20 -20 -20 -20 -20 -20 -20 -11 -20 -20 -20
-20 -20 -14 -18 14 -0 -20 -20 -20 -20 -20 -20 -20 -20 -20 -20 -20 -20 -20 -20 -20 -20 -20 -20 -20 -20 -20 -20 -20 -20 -20 -20 -20 -20 -3 -20 11 -17 -20 -20 -20 -20 -20 -20 -20 -20 -20 -20 -20
-20 -20 -20 -20 -20 1 -20 -20 -20 -20 -20 -20 -19 7 -20 -20 -1 -20 -20 5 -20 -20 -20 -20 -20 -20 -20 -20 -20 -20 -20 -20 -20 -20 -20 -20 2 -20 19 -20 -20 -20 -20 -20 -20 -20 -20 -20 -20
-20 -20 -20 -20 -20 6 1 -20 -20 -20 -20 -20 -20 -20 -20 -20 -19 -20 -20 -20 -20 -20 -20 -20 -20 -20 -20 -20 -20 -20 -20 -20 -20 -20 -20 -20 -20 -20 2 -20 -20 -20 -20 -20 -20 -20 -20 -20 -20
-20 -20 -20 -20 -20 -20 -9 -20 -20 -20 -20 -20 -20 -20 -20 -20 -20 -20 -20 -20 -20 -20 -20 -20 -20 -20 -20 -20 -20 -20 -20 -20 -20 -20 -20 -20 -20 -20 -20 -20 -5 6 -20 -20 -20 -20 -20 -20 -20
-20 -20 -20 -20 -20 -20 -20 -20 -20 -20 -20 -20 -20 -20 -20 -20 -20 -20 -20 -20 -18 -15 -20 -20 -20 -20 -20 -20 -20 -20 -20 -20 -20 -20 -20 -20 -20 7 -20 -20 -20 -20 -20 -20 -20 -20 -20 -20 -20
-20 -20 -20 -20 1 -20 -20 -20 -20 -20 -20 -20 -20 -20 -20 -20 -20 -20 -20 28 2 -20 -20 -20 -20 -20 -20 -20 -20 -20 -20 -20 -20 -20 -20 -20 -20 -20 -17 -20 -20 -19 -20 -20 -4 -4 -20 -20 -20
Wind_Speed
11 12 8 5 2 4 7 14 12 15 17 15 31 25 7 7 3 15 18 25 24 20 17 14 13 13 13 13 12 13 12 12 11 11 11 12 11 11 10 11 11 12 14 15 15 13 15 12 13
8 7 2 2 3 12 9 16 14 14 16 14 29 17 12 15 23 23 18 26 24 19 17 15 13 12 14 12 12 13 13 11 10 11 11 11 12 12 12 12 12 13 14 14 16 14 14 12 10
8 10 3 6 4 9 9 14 16 12 7 13 18 18 17 20 20 21 19 24 23 20 19 15 14 12 13 12 11 12 12 10 10 11 12 11 12 13 13 12 14 14 13 15 15 14 12 12 10
8 6 3 5 14 16 15 14 12 9 11 17 14 14 20 18 23 20 21 22 20 21 19 15 14 13 13 12 11 12 10 11 10 11 12 11 14 13 13 12 14 15 15 14 14 13 12 11 8
8 4 5 8 15 15 12 10 14 8 9 14 24 22 17 22 22 18 18 22 23 20 17 15 13 12 12 11 12 12 9 10 10 10 12 12 12 12 13 12 14 13 12 13 14 13 12 10 8
7 6 4 12 15 14 10 17 12 15 12 20 21 19 17 20 18 16 18 23 19 20 18 14 13 12 11 11 12 13 14 12 10 10 13 12 12 10 13 13 12 12 12 12 11 10 11 9 7
10 6 10 14 13 12 5 3 14 13 13 20 19 20 18 17 16 15 16 18 19 21 18 14 13 11 12 12 11 12 12 13 12 11 12 12 12 10 13 11 12 11 10 10 10 9 8 8 7
6 6 14 14 13 11 7 22 6 17 13 22 21 16 17 17 15 14 17 18 16 18 18 15 13 11 10 9 11 11 10 10 11 11 11 13 13 12 13 11 10 9 10 11 8 8 9 7 5
14 7 9 14 14 6 9 11 17 12 13 3 14 19 20 18 15 14 18 15 13 14 15 16 15 12 10 11 9 10 11 11 9 9 11 11 8 9 10 11 10 10 11 11 10 10 11 9 6
4 10 19 14 12 7 14 12 10 10 12 8 23 21 21 18 15 15 16 13 14 14 16 17 12 14 13 11 10 9 10 8 8 7 7 6 4 6 10 10 11 10 10 10 10 11 12 11 5
14 12 16 16 14 14 12 8 10 8 16 15 20 22 20 18 14 13 14 15 18 15 11 15 12 9 13 10 9 6 6 5 4 7 7 9 8 8 7 5 5 5 8 5 8 7 5 2 3
11 15 14 8 2 15 10 12 12 14 17 18 20 20 18 18 15 15 14 11 12 16 13 14 13 9 11 8 6 7 5 5 4 5 3 1 4 8 3 4 6 5 5 6 2 3 4 5 5
11 9 12 9 3 5 12 13 17 14 17 17 20 19 17 16 14 12 13 16 15 13 12 16 7 7 5 8 4 4 7 6 7 4 5 3 1 8 6 4 2 4 7 6 7 3 4 5 5
4 9 11 10 11 1 8 4 14 13 17 18 19 18 17 16 14 11 10 9 14 13 11 17 11 6 5 3 4 4 9 8 7 6 7 6 4 2 3 2 2 3 2 5 5 3 3 2 4
20 10 13 13 38 13 22 5 12 15 17 17 18 16 15 15 14 11 10 10 12 12 12 14 13 10 6 4 0 3 4 6 6 5 6 5 4 5 4 3 2 1 2 7 6 4 3 3 1
16 11 9 28 20 8 13 2 15 16 16 16 17 15 14 14 14 12 10 10 8 10 11 12 13 13 10 9 4 4 2 6 6 6 7 4 4 2 2 5 4 3 3 3 5 5 5 5 4
14 14 6 21 31 21 10 6 18 16 15 14 14 15 14 13 13 13 13 12 11 10 11 10 6 13 10 10 5 5 4 3 6 3 7 6 6 5 4 3 3 4 3 3 2 3 4 3 3
0 10 6 6 8 19 20 17 15 16 17 14 14 14 13 14 14 15 14 14 13 11 12 8 6 10 9 7 5 4 4 3 2 5 5 6 5 6 3 2 2 1 1 2 3 2 1 2 4
8 8 1 8 5 9 10 13 16 15 15 17 13 14 14 15 14 16 15 15 15 12 13 11 9 7 7 7 5 6 5 4 4 4 8 7 5 5 5 3 3 4 4 3 2 1 4 4 4
7 12 9 7 6 5 6 7 13 15 11 17 16 15 17 16 17 16 16 16 17 15 14 13 11 9 7 6 6 5 5 6 7 6 9 9 6 7 6 5 5 6 5 4 4 4 2 2 3
12 7 10 7 8 14 10 10 9 14 17 10 15 18 17 17 17 16 17 17 15 17 16 14 13 13 10 9 5 4 4 2 4 6 7 8 9 6 7 6 6 3 3 5 5 6 6 3 3
6 8 6 6 8 8 13 6 11 14 16 15 14 14 17 20 17 18 20 19 19 17 17 16 14 13 12 10 8 7 6 5 4 5 7 9 10 10 8 8 6 5 4 1 5 4 4 5 4
11 10 8 9 8 13 7 3 4 5 11 16 12 17 18 20 22 21 21 19 19 16 17 16 16 14 13 12 8 8 8 6 5 4 5 6 9 9 10 9 8 6 4 5 6 6 5 4 4
9 12 15 16 14 10 4 5 5 7 5 5 6 5 12 19 21 21 20 19 16 17 16 17 18 15 14 14 13 9 11 9 5 6 2 5 6 9 8 7 9 7 7 6 4 6 6 6 5
12 16 12 12 7 5 6 11 9 8 6 3 4 7 7 9 15 21 20 18 18 19 18 16 18 16 16 15 14 13 10 11 8 4 10 6 4 4 9 8 7 7 8 6 4 4 5 5 5
11 11 9 3 2 11 6 8 7 9 8 6 8 14 9 11 16 20 21 20 19 17 18 17 19 16 16 15 14 12 12 8 8 7 7 4 5 8 5 10 8 8 7 9 6 4 6 7 7
2 6 10 10 5 1 6 11 10 11 7 8 13 10 13 12 4 8 20 15 17 16 15 15 16 17 16 15 12 12 11 12 9 9 8 8 6 5 8 10 10 10 9 7 7 6 8 7 6
11 9 7 7 1 3 8 11 9 9 4 12 11 13 10 8 9 5 17 16 13 16 17 14 13 16 14 13 14 11 12 11 11 9 8 7 9 8 5 4 4 6 7 7 7 7 8 7 7
9 10 5 4 5 4 3 6 12 7 4 13 13 9 9 11 12 11 6 11 12 10 13 14 8 6 12 13 11 13 12 11 11 11 10 8 8 6 5 5 5 6 7 7 6 8 8 7 8
8 10 7 7 4 8 5 10 12 4 8 14 14 11 9 6 4 7 8 8 6 2 4 9 12 13 12 8 9 9 10 10 13 12 10 9 8 6 6 6 6 9 8 7 8 10 10 9 11
Wind_Direction
183 200 213 131 244 200 116 86 99 86 77 58 63 41 101 123 85 102 132 117 123 120 127 122 117 113 115 112 113 115 109 100 96 80 78 84 85 95 99 100 105 99 99 109 107 104 105 103 111
201 202 78 289 200 98 101 68 64 78 90 86 88 98 92 115 99 109 116 119 120 133 123 120 117 116 116 118 118 114 113 101 91 85 86 88 97 98 101 108 109 103 102 106 108 108 104 111 106
245 246 337 294 98 87 93 79 83 98 128 91 97 76 101 107 115 115 122 119 131 126 111 122 122 117 113 113 114 117 118 115 98 92 93 100 98 95 97 108 103 110 102 97 99 105 107 109 116
217 21 247 245 89 84 78 86 98 141 93 99 98 87 101 103 105 125 131 130 124 113 113 126 123 119 114 110 124 122 127 117 108 97 100 104 100 105 105 107 105 105 98 108 112 108 110 110 116
168 201 270 110 91 85 93 111 128 125 69 95 102 106 92 98 119 130 132 108 111 114 121 122 122 117 113 111 108 116 122 128 111 105 102 96 103 105 110 109 109 102 110 101 103 109 114 116 117
209 183 245 83 97 85 75 79 81 67 89 87 100 109 106 116 127 146 127 120 131 126 112 125 121 119 113 112 107 114 121 126 119 117 108 108 109 118 108 117 119 117 112 116 110 109 119 121 121
220 306 77 82 81 78 79 52 94 104 113 103 109 116 122 135 141 141 129 122 109 116 125 140 129 125 123 115 121 121 127 129 126 122 119 118 119 121 108 109 111 118 121 117 117 121 127 127 131
275 203 45 73 85 121 195 62 317 96 79 116 122 135 138 134 151 138 129 119 128 134 138 138 134 142 143 141 131 135 142 137 134 134 142 135 131 129 125 120 115 115 127 122 127 134 133 130 149
311 49 103 78 98 113 106 68 72 108 136 115 118 139 135 147 153 142 116 134 138 119 132 144 141 158 140 129 140 141 147 150 149 155 163 164 141 145 133 109 125 127 133 129 134 137 144 145 187
72 50 72 77 109 97 102 88 122 137 97 102 116 123 137 150 159 148 139 138 135 149 155 129 139 140 161 130 158 159 158 166 182 175 185 202 109 140 122 133 145 147 150 153 146 159 164 185 182
80 89 62 57 72 84 93 145 139 130 122 121 128 138 150 152 165 157 150 151 156 149 150 140 138 167 163 136 177 160 168 183 140 181 197 196 139 149 143 146 167 169 179 179 174 168 187 43 313
74 97 99 109 125 91 106 85 55 67 106 122 137 144 154 160 172 163 160 145 140 136 124 124 140 198 139 157 161 142 146 142 172 156 228 153 79 55 281 167 184 183 120 247 198 149 165 195 164
102 97 107 114 149 73 58 93 94 90 106 124 139 151 159 166 172 170 160 152 138 144 153 127 142 62 100 110 160 161 153 154 180 156 138 115 53 162 200 192 135 167 174 204 126 55 47 49 22
117 126 120 154 120 146 71 148 106 114 121 132 147 159 165 169 176 162 160 148 141 148 157 123 133 113 120 250 173 186 162 174 157 181 136 146 217 29 129 163 235 328 235 98 95 98 94 78 53
106 151 274 106 13 29 0 124 109 128 132 142 157 167 167 172 173 160 160 155 148 155 142 132 140 159 136 117 323 279 150 172 132 130 127 165 188 164 178 221 198 292 214 111 128 152 160 114 124
140 193 175 104 129 287 134 138 131 147 147 154 157 167 165 171 168 161 169 156 163 160 139 147 161 158 162 147 228 262 241 168 145 150 140 206 110 221 208 186 209 209 163 166 170 178 163 148 149
168 197 180 134 162 163 127 240 149 159 153 161 158 169 170 173 166 163 173 166 176 152 142 146 176 155 163 138 187 248 197 68 137 164 143 159 184 175 283 285 167 196 174 212 205 135 154 138 170
11 130 117 75 128 176 140 188 159 167 156 162 172 176 174 178 178 166 174 172 175 148 143 155 173 132 156 145 167 225 161 144 172 130 147 168 178 172 202 316 327 210 177 215 35 75 171 162 205
357 346 355 117 101 321 331 143 165 173 167 160 182 181 178 183 182 166 178 176 167 155 155 167 176 154 151 152 207 198 197 175 150 138 151 169 179 162 200 239 228 253 245 210 161 235 242 255 190
276 262 36 95 133 226 275 298 164 166 176 168 177 182 181 188 180 176 188 177 177 167 163 167 181 163 173 186 200 210 213 187 167 157 176 178 172 173 196 198 214 223 258 184 233 204 237 263 203
232 273 39 330 305 250 225 211 231 177 161 182 187 179 187 186 184 187 187 187 189 167 168 172 179 172 185 192 200 213 215 255 158 163 181 179 182 201 191 200 232 207 239 204 192 207 194 218 202
349 33 319 292 293 311 199 113 192 208 164 167 195 195 184 180 188 181 191 197 186 177 173 171 178 178 186 215 184 192 213 198 192 189 196 187 184 194 211 183 207 214 229 269 214 204 203 171 199
312 357 300 273 254 248 200 160 101 196 164 173 207 198 191 183 183 188 193 193 196 185 176 172 175 182 188 202 218 193 211 222 191 208 205 176 186 197 213 197 200 203 205 241 210 171 183 211 215
286 280 252 245 237 236 129 88 79 92 47 12 269 203 196 186 184 181 184 184 194 181 184 178 174 182 189 191 210 218 200 242 219 205 200 183 188 197 210 203 189 201 202 233 250 224 193 197 229
242 258 260 232 220 200 97 120 97 144 95 332 314 272 236 203 192 175 182 185 184 186 184 183 173 181 186 192 201 214 226 207 242 227 206 198 205 201 211 201 200 193 211 222 220 233 232 230 228
237 303 305 176 344 131 130 109 99 79 59 41 10 18 346 262 199 184 176 186 182 184 180 185 169 181 185 198 203 207 220 229 212 230 243 198 221 228 232 182 189 209 207 209 212 220 231 227 236
236 291 357 297 197 344 132 107 113 76 41 49 38 48 353 346 93 208 165 174 170 176 178 180 169 180 187 194 202 208 204 221 227 230 215 228 250 268 168 173 190 190 208 216 199 211 231 242 248
292 333 277 273 296 323 191 98 85 80 36 83 51 21 14 10 2 195 157 170 174 179 178 179 171 178 187 201 193 206 208 208 219 254 241 232 222 216 236 204 203 199 203 201 209 223 234 224 244
190 214 234 292 340 326 123 123 132 136 98 100 96 65 28 11 30 27 81 156 157 193 180 143 155 184 190 199 206 195 194 205 207 224 234 234 236 263 194 209 227 226 223 227 221 232 239 234 234
342 343 305 317 112 64 340 100 93 72 75 63 96 88 75 55 52 41 64 60 48 108 156 134 170 205 212 183 193 190 189 195 204 213 219 215 221 228 243 242 241 236 238 238 229 244 242 237 241